{"data":{"norad_id":52292,"intl_designator":"2022-041AH","name":"STARLINK-3753","alt_names":[],"object_type":"PAYLOAD","status":"ACTIVE","operator":null,"country":"US","launch_date":"2022-04-21","launch_site_code":"AFETR","launch_vehicle":null,"mission":null,"orbit_class":"UNKNOWN","rcs_meters":null,"size_class":null,"mass_kg":null,"dimensions":null,"purposes":["comms"],"wikipedia_slug":null,"has_3d_model":false,"image_url":null,"decayed_at":null,"tle_current":{"epoch":"2026-05-25T04:34:34.999104Z","epoch_age_seconds":54466,"freshness":"FRESH","line1":"1 52292U 22041AH  26145.19068286  .00000007  00000+0  18498-4 0  9997","line2":"2 52292  53.2125 115.6934 0001307  75.6702 284.4435 15.08842636226055","mean_motion":15.08842636,"eccentricity":0.0001307,"inclination_deg":53.2125,"raan_deg":115.6934,"arg_perigee_deg":75.6702,"mean_anomaly_deg":284.4435,"bstar":1.8498e-5,"rev_number":22605,"period_min":95.437387945074,"perigee_km":538.83116586462,"apogee_km":540.63949769214,"semimajor_km":6917.8723317784,"source":"CELESTRAK","updated_at":"2026-05-25T13:38:17.086052Z"}}}